SKYSAT-C3

Last updated on Sun Jul 06 2025 00:02:28 GMT+0000 (Coordinated Universal Time)

1 41774U 16058E 25186.57039719 .00010962 00000+0 29236-3 0 9998 2 41774 96.9520 228.2932 0002622 94.8793 265.2752 15.38295330492593
UTC large
Height (km)
Speed (km/s)
/
Latitude / Longitude
Inclination (degrees)
Orbital Period (minutes)
Azimuth
Elevation
Range (km)
Doppler Factor

Next 0 passes for location: London (51.5072 / 0.1276)

Sorry there are no passes over London.